Regional Weather Roundup
Issued by NWS

Home | Current Version | Previous Version | Text Only | Print | Product List | Glossary Off
Versions: 1 2 3 4 5 6 7 8 9 10 11 12 13 14 15 16 17 18 19 20 21 22 23 24 25 26 27 28 29 30 31 32 33 34 35 36 37 38 39 40 41 42 43 44 45 46 47 48 49 50

000
ASUS43 KOAX 240410
RWRNE

WEATHER ROUNDUP FOR NEBRASKA
NATIONAL WEATHER SERVICE OMAHA NE
1100 PM CDT WED APR 23 2014

NOTES: SATELLITE DATA IS BEING USED TO AUGMENT CLOUD COVER ABOVE
       12000 FEET.
       "FAIR" INDICATES FEW OR NO CLOUDS BELOW 12,000 FEET WITH NO
       SIGNIFICANT WEATHER AND/OR OBSTRUCTIONS TO VISIBILITY.

  * THESE STATIONS DO NOT REPORT WEATHER SUCH AS RAIN...SNOW OR FOG.

NEZ001>004-019>022-054>056-240500-
NEBRASKA PANHANDLE

CITY           SKY/WX    TMP DP  RH WIND       PRES   REMARKS
SCOTTSBLUFF    CLOUDY    51  32  48 N15       29.81R
ALLIANCE       CLOUDY    50  39  66 N10       29.78R
CHADRON        CLOUDY    49  40  71 CALM      29.82R
KIMBALL        CLOUDY    50   4  15 NW24G35   29.81F
SIDNEY         CLOUDY    54   8  16 NW22G30   29.81R
$$

NEZ057>060-069>072-079>082-240500-
SOUTHWEST NEBRASKA

CITY           SKY/WX    TMP DP  RH WIND       PRES   REMARKS
NORTH PLATTE   CLOUDY    58  42  55 N21G31    29.69R
IMPERIAL       CLOUDY    53  33  46 N22G33    29.75R
LEXINGTON      CLOUDY    62  40  45 N20G29    29.62F
MCCOOK         MOCLDY    62  28  27 NW28G36   29.64R
OGALLALA       CLOUDY    57  27  31 NW15G21   29.80R
$$

NEZ005>010-023>029-035>040-094-240500-
NORTH CENTRAL NEBRASKA

CITY           SKY/WX    TMP DP  RH WIND       PRES   REMARKS
VALENTINE      CLOUDY    54  38  54 W25G35    29.76R
AINSWORTH      CLOUDY    56  40  55 NW22G31   29.72R
BROKEN BOW     LGT RAIN  57  47  69 N23       29.69R
O`NEILL        CLOUDY    58  42  54 NW12      29.65R
ORD            LGT RAIN  59  51  75 N15G23    29.61R
THEDFORD       CLOUDY    57  39  52 NW20G28   29.74S
$$

NEZ041-046>049-061>064-073>077-083>087-240500-
SOUTH CENTRAL NEBRASKA

CITY           SKY/WX    TMP DP  RH WIND       PRES   REMARKS
GRAND ISLAND   RAIN      58  55  90 E9        29.62F
AURORA         LGT RAIN  56  56 100 E14       29.62F
HASTINGS       TSTM      59  56  89 E9        29.60S FOG
HEBRON         LGT RAIN  60  52  74 N21G29    29.59R
HOLDREGE       TSTM      58  48  69 N15       29.57F
KEARNEY *      CLOUDY    57  46  67 NW12      29.59F
YORK           RAIN      55  55 100 E12       29.66R
$$

NEZ011>018-030>034-042>045-240500-
NORTHEAST NEBRASKA

CITY           SKY/WX    TMP DP  RH WIND       PRES   REMARKS
NORFOLK        CLOUDY    58  52  80 S6G20     29.62F
ALBION         TSTM      58  52  80 S22G30    29.64R
BLAIR          CLOUDY    52  45  76 N10       29.70R
COLUMBUS *     CLOUDY    55  48  76 E16       29.66S
FREMONT        LGT RAIN  52  48  85 N12       29.72F
TEKAMAH        LGT RAIN  52  48  86 NW10      29.75R
$$

NEZ050>053-065>068-078-088>093-240500-
SOUTHEAST NEBRASKA

CITY           SKY/WX    TMP DP  RH WIND       PRES   REMARKS
LINCOLN        CLOUDY    55  48  77 N17       29.65R
OMAHA EPPLEY   LGT RAIN  54  44  69 E9        29.68R
BEATRICE       CLOUDY    69  49  49 SE9G17    29.54S
FALLS CITY     CLOUDY    65  43  44 SE12      29.64S
NEBRASKA CITY  LGT RAIN  64  44  49 SE22G28   29.62F
PLATTSMOUTH    CLOUDY    62  41  45 SE15      29.64R
$$

NEZ044-045-051>053-067-240500-
OMAHA AREA

CITY           SKY/WX    TMP DP  RH WIND       PRES   REMARKS
OMAHA EPPLEY   LGT RAIN  54  44  69 E9        29.68R
BLAIR          CLOUDY    52  45  76 N10       29.70R
FREMONT        LGT RAIN  52  48  85 N12       29.72F
MILLARD        RAIN      54  46  73 NW9       29.70R
OFFUTT AFB     LGT RAIN  55  47  76 NE10      29.65R
PLATTSMOUTH    CLOUDY    62  41  45 SE15      29.64R
WAHOO          LGT RAIN  52  47  81 N20       29.68F
$$



USA.gov is the U.S. government's official web portal to all federal, state and local government web resources and services.